Weather in Gumnishchi

Russia / Ivanovo Oblast     56°47′42″N   41°15′00″E
temp.,
°C
wind,
m/s
gust,
m/s
humid.,
%
clouds,
%
prec.,
mm/h
press.,
hPa
HPBL,
m
3 march, wed
wed300:00−4nw4129060 0.1 1007563
03:00−6nw5129042 0.1 1009532
06:00−8nw5139399 0.0 1010465
09:00−6nw5119099 0.1 1011587
12:00−3nw5107987 0.0 1011967
15:00−2wnw588688 0.1 1010786
18:00−2w41095100 0.2 1008585
21:00−2w4119599 0.4 1006636
4 march, thu
thu400:00−2wsw51193100 0.2 1003755
03:00−2wsw61395100 0.6 1000817
06:000wsw61398100 1.7 995856
09:00+1wnw81385100 3.8 9941244
12:00−1wnw7127934 0.1 9961207
15:00−2wnw6108468 0.2 9981028
18:00−4w398999 0.1 999324
21:00−6nw269599 0.1 1000189
5 march, fri
fri500:00−9nnw229682 0.0 100121
03:00−12nnw229366 0.0 100324
06:00−13nnw12950 0.0 100420
09:00−10wnw12930 0.0 1005138
12:00−5w238399 0.0 1005499
15:00−4wsw238399 0.1 1007696
18:00−7sw2395100 0.3 100747
21:00−7nw3109499 0.4 1010369
6 march, sat
sat600:00−12wnw239424 0.0 101167
03:00−13nw259723 0.0 1013130
06:00−16nw359743 0.0 1014141
09:00−15nnw358950 0.0 1015263
12:00−11nw358129 0.0 1015733
15:00−10wnw358164 0.1 1015914
18:00−13w2392100 0.1 101468
21:00−14wsw239778 0.1 101377
7 march, sun
sun700:00−13sw359753 0.0 1011138
03:00−13ssw499365 0.0 1008255
06:00−11ssw6139380 0.2 1003593
09:00−8ssw7139290 1.3 998916
12:00−5ssw71392100 1.6 9941051
15:00−5wnw81292100 3.7 992851
18:00−9w2382100 0.4 99266
21:00−11ssw238670 0.4 99372